Weather in Biser

Russia / Perm Krai     58°30′43″N   58°52′37″E
temp.,
°C
wind,
m/s
gust,
m/s
humid.,
%
clouds,
%
prec.,
mm/h
press.,
hPa
HPBL,
m
3 march, wed
wed323:00−13sw5139499 0.4 997456
02:00−11sw5139499 0.8 995447
05:00−10sw4119599 1.1 995375
08:00−11wsw3996100 0.1 993253
11:00−6wsw5109499 0.2 994447
14:00−3wsw479197 0.1 994704
17:00−4wsw479298 0.3 995664
20:00−7wsw399871 0.1 996234
4 march, thu
thu423:00−8wsw249877 0.2 996105
02:00−11wsw119892 0.0 99521
05:00−11wsw119896 0.1 99521
08:00−11w2297100 0.1 99487
11:00−9w4891100 0.3 994537
14:00−7wsw5889100 0.1 994794
17:00−8wsw4891100 0.3 994768
20:00−9sw41095100 0.3 994470
5 march, fri
fri523:00−11ssw2797100 0.4 994198
02:00−11ssw239799 0.2 99393
05:00−14sw119991 0.2 99420
08:00−14wsw119990 0.0 99520
11:00−8sw249493 0.1 997284
14:00−5w3689100 0.1 998729
17:00−6w3588100 0.3 999714
20:00−12wnw229681 0.1 100021
6 march, sat
sat623:00−15wnw129647 0.1 100120
02:00−18w12970 0.0 100220
05:00−19w36998 0.0 1004128
08:00−20w4109978 0.0 1006255
11:00−15w5109287 0.1 1007507
14:00−13w588999 0.1 1007700
17:00−13w4888100 0.1 1007692
20:00−17w369994 0.0 1008117
7 march, sun
sun723:00−19wsw2210094 0.1 100841
02:00−19sw2210092 0.1 100729
05:00−20sw2210092 0.1 100723
08:00−19sw259995 0.1 1007134
11:00−15wsw479097 0.3 1007710
14:00−14w4787100 0.1 1008777
17:00−15wsw4688100 0.1 1008788
20:00−17ssw2798100 0.1 1009244